Time,TemperatureF,DewpointF,PressureIn,WindDirection,WindDirectionDegrees,WindSpeedMPH,WindSpeedGustMPH,Humidity,HourlyPrecipIn,Conditions,Clouds,dailyrainin,SoftwareType,DateUTC
2013-02-19 00:01:00,22.3,15.0,30.23,SE,146,1.0,-999.0,74,-99.99,,,0.00,weatherlink.com 1.10,2013-02-19 05:01:00,
2013-02-19 00:16:00,22.4,16.0,30.22,SE,146,0.0,-999.0,75,-99.99,,,0.00,weatherlink.com 1.10,2013-02-19 05:16:00,
2013-02-19 00:31:00,22.6,16.0,30.22,SE,146,0.0,-999.0,76,-99.99,,,0.00,weatherlink.com 1.10,2013-02-19 05:31:00,
2013-02-19 00:46:00,23.0,16.0,30.22,SE,146,0.0,-999.0,74,-99.99,,,0.00,weatherlink.com 1.10,2013-02-19 05:46:00,
2013-02-19 01:02:00,23.6,17.0,30.21,SE,146,0.0,-999.0,75,-99.99,,,0.00,weatherlink.com 1.10,2013-02-19 06:02:00,
2013-02-19 01:17:00,24.1,18.0,30.20,SE,146,0.0,-999.0,78,-99.99,,,0.00,weatherlink.com 1.10,2013-02-19 06:17:00,
2013-02-19 01:32:00,24.3,18.0,30.20,SE,146,0.0,-999.0,77,-99.99,,,0.00,weatherlink.com 1.10,2013-02-19 06:32:00,
2013-02-19 01:47:00,24.8,19.0,30.19,SE,146,0.0,-999.0,78,-99.99,,,0.00,weatherlink.com 1.10,2013-02-19 06:47:00,
2013-02-19 02:02:00,25.2,19.0,30.19,SE,146,0.0,-999.0,78,-99.99,,,0.00,weatherlink.com 1.10,2013-02-19 07:02:00,
2013-02-19 02:17:00,25.5,19.0,30.19,SE,146,0.0,-999.0,75,-99.99,,,0.00,weatherlink.com 1.10,2013-02-19 07:17:00,
2013-02-19 02:32:00,26.1,20.0,30.18,SE,146,0.0,-999.0,76,-99.99,,,0.00,weatherlink.com 1.10,2013-02-19 07:32:00,
2013-02-19 02:47:00,26.1,19.0,30.18,SE,146,0.0,-999.0,75,-99.99,,,0.00,weatherlink.com 1.10,2013-02-19 07:47:00,
2013-02-19 03:02:00,26.5,20.0,30.17,SE,146,0.0,-999.0,75,-99.99,,,0.00,weatherlink.com 1.10,2013-02-19 08:02:00,
2013-02-19 03:17:00,26.4,19.0,30.16,SE,146,0.0,-999.0,74,-99.99,,,0.00,weatherlink.com 1.10,2013-02-19 08:17:00,
2013-02-19 03:32:00,26.0,19.0,30.16,SE,146,0.0,-999.0,76,-99.99,,,0.00,weatherlink.com 1.10,2013-02-19 08:32:00,
2013-02-19 03:47:00,25.5,19.0,30.16,SE,146,0.0,-999.0,76,-99.99,,,0.00,weatherlink.com 1.10,2013-02-19 08:47:00,
2013-02-19 04:02:00,25.0,19.0,30.16,SE,146,0.0,-999.0,77,-99.99,,,0.00,weatherlink.com 1.10,2013-02-19 09:02:00,
2013-02-19 04:17:00,24.5,18.0,30.16,SE,146,0.0,-999.0,75,-99.99,,,0.00,weatherlink.com 1.10,2013-02-19 09:17:00,
2013-02-19 04:32:00,24.1,18.0,30.16,SE,146,0.0,-999.0,76,-99.99,,,0.00,weatherlink.com 1.10,2013-02-19 09:32:00,
2013-02-19 04:47:00,23.8,18.0,30.15,SE,146,0.0,-999.0,77,-99.99,,,0.00,weatherlink.com 1.10,2013-02-19 09:47:00,
2013-02-19 05:02:00,23.4,18.0,30.15,SE,146,0.0,-999.0,78,-99.99,,,0.00,weatherlink.com 1.10,2013-02-19 10:02:00,
2013-02-19 05:17:00,23.0,17.0,30.14,SE,146,0.0,-999.0,78,-99.99,,,0.00,weatherlink.com 1.10,2013-02-19 10:17:00,
2013-02-19 05:32:00,22.9,17.0,30.14,SE,146,0.0,-999.0,77,-99.99,,,0.00,weatherlink.com 1.10,2013-02-19 10:32:00,
2013-02-19 05:47:00,22.4,17.0,30.13,SE,146,0.0,-999.0,79,-99.99,,,0.00,weatherlink.com 1.10,2013-02-19 10:47:00,
2013-02-19 06:02:00,22.1,17.0,30.12,SE,146,0.0,-999.0,79,-99.99,,,0.00,weatherlink.com 1.10,2013-02-19 11:02:00,
2013-02-19 06:17:00,21.8,17.0,30.11,SE,146,0.0,-999.0,81,-99.99,,,0.00,weatherlink.com 1.10,2013-02-19 11:17:00,
2013-02-19 06:32:00,21.4,16.0,30.11,SE,146,0.0,-999.0,81,-99.99,,,0.00,weatherlink.com 1.10,2013-02-19 11:32:00,
2013-02-19 06:47:00,21.3,16.0,30.10,SE,146,0.0,-999.0,80,-99.99,,,0.00,weatherlink.com 1.10,2013-02-19 11:47:00,
2013-02-19 07:02:00,21.1,16.0,30.10,SE,146,0.0,-999.0,82,-99.99,,,0.00,weatherlink.com 1.10,2013-02-19 12:02:00,
2013-02-19 07:17:00,20.8,16.0,30.11,SE,146,0.0,-999.0,82,-99.99,,,0.00,weatherlink.com 1.10,2013-02-19 12:17:00,
2013-02-19 07:32:00,21.1,17.0,30.10,SE,146,0.0,-999.0,83,-99.99,,,0.00,weatherlink.com 1.10,2013-02-19 12:32:00,
2013-02-19 07:47:00,21.3,17.0,30.10,SE,146,0.0,-999.0,84,-99.99,,,0.00,weatherlink.com 1.10,2013-02-19 12:47:00,
2013-02-19 08:02:00,22.3,17.0,30.10,SE,146,0.0,-999.0,81,-99.99,,,0.00,weatherlink.com 1.10,2013-02-19 13:02:00,
2013-02-19 08:17:00,23.3,18.0,30.09,SE,146,0.0,-999.0,81,-99.99,,,0.00,weatherlink.com 1.10,2013-02-19 13:17:00,
2013-02-19 08:32:00,24.9,19.0,30.09,SE,146,0.0,-999.0,78,-99.99,,,0.00,weatherlink.com 1.10,2013-02-19 13:32:00,
2013-02-19 08:47:00,26.9,19.0,30.08,SE,146,0.0,-999.0,72,-99.99,,,0.00,weatherlink.com 1.10,2013-02-19 13:47:00,
2013-02-19 09:02:00,28.9,20.0,30.07,SW,233,0.0,-999.0,68,-99.99,,,0.00,weatherlink.com 1.10,2013-02-19 14:02:00,
2013-02-19 09:17:00,30.6,20.0,30.05,SW,233,0.0,-999.0,66,-99.99,,,0.00,weatherlink.com 1.10,2013-02-19 14:17:00,
2013-02-19 09:33:00,31.8,21.0,30.06,SW,232,0.0,-999.0,65,-99.99,,,0.00,weatherlink.com 1.10,2013-02-19 14:33:00,
2013-02-19 09:48:00,32.9,22.0,30.06,SW,232,0.0,-999.0,64,-99.99,,,0.00,weatherlink.com 1.10,2013-02-19 14:48:00,
2013-02-19 10:03:00,34.3,23.0,30.05,WSW,242,2.0,-999.0,64,-99.99,,,0.00,weatherlink.com 1.10,2013-02-19 15:03:00,
2013-02-19 10:18:00,35.8,25.0,30.03,WSW,239,0.0,-999.0,64,-99.99,,,0.00,weatherlink.com 1.10,2013-02-19 15:18:00,
2013-02-19 10:33:00,36.8,26.0,30.02,WSW,238,0.0,-999.0,64,-99.99,,,0.00,weatherlink.com 1.10,2013-02-19 15:33:00,
2013-02-19 10:48:00,37.8,26.0,30.02,SSW,210,0.0,-999.0,63,-99.99,,,0.00,weatherlink.com 1.10,2013-02-19 15:48:00,
2013-02-19 11:03:00,38.8,27.0,30.00,SSW,207,3.0,-999.0,63,-99.99,,,0.00,weatherlink.com 1.10,2013-02-19 16:03:00,
2013-02-19 11:18:00,39.2,27.0,29.99,SSE,148,2.0,-999.0,62,-99.99,,,0.00,weatherlink.com 1.10,2013-02-19 16:18:00,
2013-02-19 11:33:00,39.8,28.0,29.99,SW,214,0.0,-999.0,64,-99.99,,,0.00,weatherlink.com 1.10,2013-02-19 16:33:00,
2013-02-19 11:48:00,41.4,30.0,29.98,SE,144,4.0,-999.0,64,-99.99,,,0.00,weatherlink.com 1.10,2013-02-19 16:48:00,
2013-02-19 12:03:00,43.0,30.0,29.97,SE,142,2.0,-999.0,61,-99.99,,,0.00,weatherlink.com 1.10,2013-02-19 17:03:00,
2013-02-19 12:18:00,43.8,31.0,29.95,SSE,167,4.0,-999.0,60,-99.99,,,0.00,weatherlink.com 1.10,2013-02-19 17:18:00,
2013-02-19 12:33:00,43.7,31.0,29.94,ESE,110,4.0,-999.0,61,-99.99,,,0.00,weatherlink.com 1.10,2013-02-19 17:33:00,
2013-02-19 12:48:00,43.5,31.0,29.92,ESE,102,4.0,-999.0,62,-99.99,,,0.00,weatherlink.com 1.10,2013-02-19 17:48:00,
2013-02-19 13:03:00,43.2,31.0,29.91,SE,132,2.0,-999.0,63,-99.99,,,0.00,weatherlink.com 1.10,2013-02-19 18:03:00,
2013-02-19 13:18:00,43.6,32.0,29.91,SSE,149,1.0,-999.0,65,-99.99,,,0.00,weatherlink.com 1.10,2013-02-19 18:18:00,
2013-02-19 13:33:00,43.9,32.0,29.90,ESE,122,2.0,-999.0,64,-99.99,,,0.00,weatherlink.com 1.10,2013-02-19 18:33:00,
2013-02-19 13:48:00,43.1,35.0,29.90,ENE,66,4.0,-999.0,72,-99.99,,,0.00,weatherlink.com 1.10,2013-02-19 18:48:00,
2013-02-19 14:03:00,40.9,37.0,29.89,SE,136,2.0,-999.0,86,-99.99,,,0.02,weatherlink.com 1.10,2013-02-19 19:03:00,
2013-02-19 14:18:00,39.4,36.0,29.87,South,169,4.0,-999.0,87,-99.99,,,0.03,weatherlink.com 1.10,2013-02-19 19:18:00,
2013-02-19 14:33:00,38.8,36.0,29.87,SE,138,4.0,-999.0,89,-99.99,,,0.06,weatherlink.com 1.10,2013-02-19 19:33:00,
2013-02-19 14:48:00,38.3,36.0,29.86,ESE,116,1.0,-999.0,91,-99.99,,,0.06,weatherlink.com 1.10,2013-02-19 19:48:00,
2013-02-19 15:04:00,38.0,36.0,29.84,ESE,116,0.0,-999.0,92,-99.99,,,0.07,weatherlink.com 1.10,2013-02-19 20:04:00,
2013-02-19 15:19:00,37.7,36.0,29.83,ESE,116,0.0,-999.0,93,-99.99,,,0.08,weatherlink.com 1.10,2013-02-19 20:19:00,
2013-02-19 15:34:00,37.6,36.0,29.82,ESE,122,0.0,-999.0,93,-99.99,,,0.09,weatherlink.com 1.10,2013-02-19 20:34:00,
2013-02-19 15:49:00,37.4,36.0,29.81,ESE,122,0.0,-999.0,94,-99.99,,,0.10,weatherlink.com 1.10,2013-02-19 20:49:00,
2013-02-19 16:04:00,37.4,36.0,29.80,ESE,122,1.0,-999.0,94,-99.99,,,0.10,weatherlink.com 1.10,2013-02-19 21:04:00,
2013-02-19 16:19:00,37.3,36.0,29.78,SE,142,0.0,-999.0,95,-99.99,,,0.11,weatherlink.com 1.10,2013-02-19 21:19:00,
2013-02-19 16:34:00,37.3,36.0,29.77,SE,142,0.0,-999.0,95,-99.99,,,0.12,weatherlink.com 1.10,2013-02-19 21:34:00,
2013-02-19 16:49:00,37.0,36.0,29.76,SE,142,0.0,-999.0,95,-99.99,,,0.14,weatherlink.com 1.10,2013-02-19 21:49:00,
2013-02-19 17:04:00,37.1,36.0,29.76,SE,142,0.0,-999.0,95,-99.99,,,0.15,weatherlink.com 1.10,2013-02-19 22:04:00,
2013-02-19 17:19:00,37.0,36.0,29.75,SE,142,0.0,-999.0,95,-99.99,,,0.16,weatherlink.com 1.10,2013-02-19 22:19:00,
2013-02-19 17:34:00,36.9,36.0,29.75,SE,142,0.0,-999.0,95,-99.99,,,0.17,weatherlink.com 1.10,2013-02-19 22:34:00,
2013-02-19 17:49:00,36.8,36.0,29.74,SE,142,0.0,-999.0,95,-99.99,,,0.17,weatherlink.com 1.10,2013-02-19 22:49:00,
2013-02-19 18:04:00,36.7,36.0,29.74,SE,142,0.0,-999.0,96,-99.99,,,0.18,weatherlink.com 1.10,2013-02-19 23:04:00,
2013-02-19 18:19:00,36.6,36.0,29.73,SE,142,0.0,-999.0,96,-99.99,,,0.18,weatherlink.com 1.10,2013-02-19 23:19:00,
2013-02-19 18:34:00,36.6,36.0,29.73,SE,142,0.0,-999.0,96,-99.99,,,0.19,weatherlink.com 1.10,2013-02-19 23:34:00,
2013-02-19 18:49:00,36.5,36.0,29.71,SE,142,1.0,-999.0,96,-99.99,,,0.20,weatherlink.com 1.10,2013-02-19 23:49:00,
2013-02-19 19:04:00,36.7,36.0,29.73,SE,142,0.0,-999.0,96,-99.99,,,0.21,weatherlink.com 1.10,2013-02-20 00:04:00,
2013-02-19 19:19:00,37.7,37.0,29.70,SSW,198,1.0,-999.0,97,-99.99,,,0.22,weatherlink.com 1.10,2013-02-20 00:19:00,
2013-02-19 19:34:00,38.8,38.0,29.70,South,189,2.0,-999.0,97,-99.99,,,0.23,weatherlink.com 1.10,2013-02-20 00:34:00,
2013-02-19 19:49:00,38.3,38.0,29.70,South,184,0.0,-999.0,97,-99.99,,,0.23,weatherlink.com 1.10,2013-02-20 00:49:00,
2013-02-19 20:04:00,39.3,39.0,29.69,SSW,207,0.0,-999.0,97,-99.99,,,0.23,weatherlink.com 1.10,2013-02-20 01:04:00,
2013-02-19 20:19:00,39.8,39.0,29.68,East,83,0.0,-999.0,97,-99.99,,,0.23,weatherlink.com 1.10,2013-02-20 01:19:00,
2013-02-19 20:34:00,40.0,39.0,29.68,SE,136,2.0,-999.0,97,-99.99,,,0.23,weatherlink.com 1.10,2013-02-20 01:34:00,
2013-02-19 20:49:00,40.0,39.0,29.69,SSE,168,1.0,-999.0,96,-99.99,,,0.24,weatherlink.com 1.10,2013-02-20 01:49:00,
2013-02-19 21:04:00,40.0,39.0,29.69,NNW,341,1.0,-999.0,95,-99.99,,,0.25,weatherlink.com 1.10,2013-02-20 02:04:00,
2013-02-19 21:19:00,39.5,38.0,29.70,SE,125,1.0,-999.0,94,-99.99,,,0.26,weatherlink.com 1.10,2013-02-20 02:19:00,
2013-02-19 21:34:00,39.3,37.0,29.68,NNW,339,5.0,-999.0,91,-99.99,,,0.26,weatherlink.com 1.10,2013-02-20 02:34:00,
2013-02-19 21:49:00,39.4,37.0,29.68,NNW,336,5.0,-999.0,90,-99.99,,,0.26,weatherlink.com 1.10,2013-02-20 02:49:00,
2013-02-19 22:04:00,39.2,37.0,29.67,NNW,340,1.0,-999.0,90,-99.99,,,0.26,weatherlink.com 1.10,2013-02-20 03:04:00,
2013-02-19 22:19:00,39.1,37.0,29.66,NW,315,6.0,-999.0,90,-99.99,,,0.26,weatherlink.com 1.10,2013-02-20 03:19:00,
2013-02-19 22:34:00,38.8,36.0,29.66,North,360,4.0,-999.0,89,-99.99,,,0.26,weatherlink.com 1.10,2013-02-20 03:34:00,
2013-02-19 22:49:00,38.8,35.0,29.66,North,355,2.0,-999.0,87,-99.99,,,0.26,weatherlink.com 1.10,2013-02-20 03:49:00,
2013-02-19 23:04:00,38.8,35.0,29.66,WNW,292,1.0,-999.0,86,-99.99,,,0.26,weatherlink.com 1.10,2013-02-20 04:04:00,
2013-02-19 23:19:00,38.5,34.0,29.66,North,350,5.0,-999.0,85,-99.99,,,0.26,weatherlink.com 1.10,2013-02-20 04:19:00,
2013-02-19 23:34:00,38.3,33.0,29.67,North,9,2.0,-999.0,82,-99.99,,,0.26,weatherlink.com 1.10,2013-02-20 04:34:00,
2013-02-19 23:49:00,37.9,32.0,29.67,NW,311,6.0,-999.0,80,-99.99,,,0.27,weatherlink.com 1.10,2013-02-20 04:49:00,